TimeEST,TemperatureF,Dew PointF,Humidity,Sea Level PressureIn,VisibilityMPH,Wind Direction,Wind SpeedMPH,Gust SpeedMPH,PrecipitationIn,Events,Conditions,WindDirDegrees,DateUTC
12:51 AM,28.9,25.0,85,30.20,9.0,WNW,3.5,-,N/A,,Clear,300,2012-11-09 05:51:00
1:51 AM,28.9,25.0,85,30.21,8.0,Calm,Calm,-,N/A,,Clear,0,2012-11-09 06:51:00
2:51 AM,28.0,24.1,85,30.22,8.0,Calm,Calm,-,N/A,,Clear,0,2012-11-09 07:51:00
3:51 AM,28.0,25.0,88,30.23,6.0,Calm,Calm,-,N/A,,Clear,0,2012-11-09 08:51:00
4:51 AM,28.0,25.0,88,30.25,6.0,Calm,Calm,-,N/A,,Clear,0,2012-11-09 09:51:00
5:51 AM,27.0,24.1,89,30.27,6.0,Calm,Calm,-,N/A,,Clear,0,2012-11-09 10:51:00
6:51 AM,28.4,24.8,86,30.22,5.0,Calm,Calm,-,N/A,,Clear,0,2012-11-09 11:51:00
7:51 AM,28.0,25.0,88,30.29,5.0,Calm,Calm,-,N/A,,Clear,0,2012-11-09 12:51:00
8:51 AM,32.0,28.9,88,30.30,5.0,Calm,Calm,-,N/A,,Clear,0,2012-11-09 13:51:00
9:51 AM,39.0,32.0,76,30.29,6.0,Calm,Calm,-,N/A,,Haze,0,2012-11-09 14:51:00
10:51 AM,45.0,33.1,63,30.29,10.0,SW,4.6,-,N/A,,Clear,220,2012-11-09 15:51:00
11:51 AM,48.9,32.0,52,30.27,10.0,WSW,8.1,-,N/A,,Scattered Clouds,250,2012-11-09 16:51:00
12:51 PM,50.0,32.0,50,30.24,10.0,WSW,6.9,16.1,N/A,,Partly Cloudy,240,2012-11-09 17:51:00
1:51 PM,52.0,33.1,49,30.22,10.0,WSW,10.4,-,N/A,,Partly Cloudy,240,2012-11-09 18:51:00
2:51 PM,52.0,32.0,47,30.21,10.0,SSW,4.6,-,N/A,,Clear,210,2012-11-09 19:51:00
3:51 PM,53.1,32.0,45,30.22,10.0,SW,5.8,-,N/A,,Clear,230,2012-11-09 20:51:00
4:51 PM,52.0,32.0,47,30.22,10.0,WSW,4.6,-,N/A,,Clear,240,2012-11-09 21:51:00
5:51 PM,48.9,33.1,54,30.22,10.0,SW,3.5,-,N/A,,Clear,220,2012-11-09 22:51:00
6:51 PM,46.9,33.1,59,30.22,10.0,SSW,3.5,-,N/A,,Clear,210,2012-11-09 23:51:00
7:51 PM,46.0,32.0,58,30.23,10.0,SSW,3.5,-,N/A,,Clear,210,2012-11-10 00:51:00
8:51 PM,44.1,32.0,63,30.23,10.0,South,3.5,-,N/A,,Clear,170,2012-11-10 01:51:00
9:51 PM,43.0,30.9,62,30.24,10.0,Calm,Calm,-,N/A,,Clear,0,2012-11-10 02:51:00
10:51 PM,41.0,30.9,67,30.22,10.0,Calm,Calm,-,N/A,,Clear,0,2012-11-10 03:51:00
11:51 PM,39.0,30.9,73,30.22,10.0,Calm,Calm,-,N/A,,Partly Cloudy,0,2012-11-10 04:51:00